ROBUSTA-1E (ENSO)

Last updated on Wed Oct 29 2025 00:03:53 GMT+0000 (Coordinated Universal Time)

1 58470U 23185J 25301.66904900 .00583689 14501-3 14187-2 0 9994 2 58470 97.3497 23.6459 0007570 268.2613 91.7796 15.96231002107131
UTC large
Height (km)
Speed (km/s)
/
Latitude / Longitude
Inclination (degrees)
Orbital Period (minutes)
Azimuth
Elevation
Range (km)
Doppler Factor

Next 0 passes for location: London (51.5072 / 0.1276)

Sorry there are no passes over London.